date,time,DOY,Ta_1_1_1,Pa_1_1_1,RH_1_1_1,LWin_1_1_1,LWout_1_1_1,SWin_1_1_1,SWout_1_1_1,PPFD_1_1_1,MWS_1_1_1,WD_1_1_1,SWC_1_1_1,Ts_1_1_1
[yyyy-mm-dd],[HH:MM],[ddd.ddd],[K],[Pa],[%],[W+1m-2],[W+1m-2],[W+1m-2],[W+1m-2],[µmol+1m-2s-1],[m+1s-1],[deg],[m+3m-3],[K]
2018-08-07,00:30,219.020,291.47100000000006,94927.966666666660,68.233000000000018,409.23166666666668,343.34533333333337,29.970000000000002,110.29700000000000,217.85766666666666,0.0000000000000000,0.0000000000000000,0.19000000000000009,290.66200000000003
2018-08-07,01:00,219.041,290.84533333333331,94937.699999999997,70.527000000000015,404.02899999999988,338.80466666666661,16.298333333333339,48.338333333333338,96.114666666666679,0.0000000000000000,0.0000000000000000,0.19000000000000009,290.56066666666669
2018-08-07,01:30,219.062,290.13566666666674,94938.666666666672,73.779333333333341,397.72600000000000,334.92800000000000,3.3329999999999993,5.3963333333333336,19.356000000000002,0.0000000000000000,0.0000000000000000,0.19000000000000009,290.45333333333326
2018-08-07,02:00,219.083,289.38899999999995,94946.233333333337,76.690666666666672,392.87333333333333,330.87866666666673,1.6956666666666664,-3.6463333333333328,0.87066666666666670,0.0000000000000000,0.0000000000000000,0.19000000000000009,290.34333333333342
2018-08-07,02:30,219.104,289.08900000000006,94960.100000000006,77.901999999999987,390.40366666666671,329.18633333333332,2.0286666666666666,-3.6856666666666671,-1.36666666666666672E-002,6.00000000000000047E-002,3.3443333333333332,0.19000000000000009,290.22200000000004
2018-08-07,03:00,219.124,288.91100000000006,94959.300000000003,78.847666666666655,388.49399999999991,328.41233333333338,1.8736666666666666,-3.7236666666666660,-1.80000000000000021E-002,0.20000000000000001,9.3443333333333332,0.19000000000000009,290.09400000000011
2018-08-07,03:30,219.145,288.77800000000013,94952.199999999997,78.846333333333348,387.81533333333323,328.64433333333335,1.9100000000000001,-3.4576666666666664,-2.16666666666666709E-002,0.0000000000000000,0.0000000000000000,0.19000000000000009,289.96066666666673
2018-08-07,04:00,219.166,288.55233333333342,94949.766666666663,79.564666666666653,386.88966666666681,328.08166666666671,1.7620000000000002,-3.6493333333333333,-1.16666666666666689E-002,0.0000000000000000,0.0000000000000000,0.19000000000000009,289.82766666666674
2018-08-07,04:30,219.187,288.24666666666673,94956.333333333328,80.694999999999993,384.89666666666665,326.83433333333329,1.8226666666666673,-3.5913333333333335,-8.00000000000000017E-003,0.0000000000000000,0.0000000000000000,0.19000000000000009,289.70633333333336
2018-08-07,05:00,219.208,288.07100000000003,94981.800000000003,82.838333333333352,384.24299999999999,326.50433333333331,1.9376666666666664,-3.4346666666666672,9.33333333333333237E-003,0.0000000000000000,0.0000000000000000,0.19000000000000009,289.58966666666674
2018-08-07,05:30,219.229,287.65300000000008,94997.466666666660,85.655666666666676,382.74966666666677,326.01566666666673,1.6333333333333335,-3.6090000000000009,-3.66666666666666660E-003,1.00000000000000002E-002,2.6443333333333334,0.19000000000000009,289.47433333333339
2018-08-07,06:00,219.249,287.43766666666676,94989.666666666672,87.513999999999996,382.12899999999996,324.96999999999997,1.2530000000000003,-3.2393333333333332,9.00000000000000105E-003,0.0000000000000000,0.0000000000000000,0.19000000000000009,289.36599999999999
2018-08-07,06:30,219.270,287.78799999999995,94991.266666666663,84.749000000000009,382.97500000000008,325.69933333333341,2.3843333333333332,-3.8693333333333326,1.23333333333333368E-002,0.0000000000000000,0.0000000000000000,0.19000000000000009,289.25633333333337
2018-08-07,07:00,219.291,287.61033333333347,94954.966666666660,84.450333333333319,382.28900000000004,324.22433333333322,3.5630000000000006,-2.8723333333333332,1.66666666666666664E-002,0.0000000000000000,0.0000000000000000,0.19000000000000009,289.14766666666668
2018-08-07,07:30,219.312,287.86699999999996,94945.000000000000,85.103333333333339,381.93233333333330,322.96799999999996,3.2000000000000002,-3.2806666666666664,1.26666666666666681E-002,0.0000000000000000,0.0000000000000000,0.19000000000000009,289.04833333333335
2018-08-07,08:00,219.333,287.67000000000007,94926.966666666660,85.898000000000010,381.06866666666667,322.60566666666665,1.2543333333333337,-4.3259999999999996,8.00000000000000017E-003,0.0000000000000000,0.0000000000000000,0.19000000000000009,288.95466666666664
2018-08-07,08:30,219.354,287.44666666666660,94923.100000000006,87.368666666666698,380.84199999999987,321.99033333333335,1.0193333333333332,-3.8456666666666672,8.00000000000000017E-003,0.0000000000000000,0.0000000000000000,0.19000000000000009,288.85800000000000
2018-08-07,09:00,219.374,287.63999999999999,94905.699999999997,84.698999999999984,380.93599999999992,322.13433333333336,1.5013333333333334,-4.5049999999999999,1.40000000000000003E-002,0.0000000000000000,0.0000000000000000,0.19000000000000009,288.77033333333327
2018-08-07,09:30,219.395,287.05166666666668,94910.766666666663,86.817000000000021,380.19266666666664,320.90699999999998,0.84166666666666634,-4.6723333333333326,9.00000000000000105E-003,0.0000000000000000,0.0000000000000000,0.19000000000000009,288.68000000000001
2018-08-07,10:00,219.416,286.89466666666681,94914.699999999997,89.620666666666679,379.69333333333338,323.34899999999999,0.85366666666666646,-3.0636666666666668,6.00000000000000012E-003,0.0000000000000000,0.0000000000000000,0.19000000000000009,288.60400000000010
2018-08-07,10:30,219.437,286.59900000000005,94926.433333333334,89.308666666666639,378.78766666666667,319.31166666666661,0.87200000000000000,-3.3263333333333325,0.25633333333333330,0.0000000000000000,0.0000000000000000,0.19000000000000009,288.53600000000006
2018-08-07,11:00,219.458,286.18233333333325,94939.533333333340,90.775666666666694,377.96133333333341,319.70566666666656,2.3313333333333333,5.1453333333333324,10.961000000000002,0.0000000000000000,0.0000000000000000,0.19000000000000009,288.46300000000002
2018-08-07,11:30,219.479,286.35733333333337,94935.666666666672,90.705666666666673,379.10499999999996,318.82466666666670,9.5446666666666662,42.753666666666660,65.287999999999997,0.0000000000000000,0.0000000000000000,0.19000000000000009,288.39600000000007
2018-08-07,12:00,219.499,286.77566666666661,94921.666666666672,89.397666666666680,381.68966666666660,320.22033333333331,19.616000000000000,106.08300000000000,173.22833333333332,0.0000000000000000,0.0000000000000000,0.19000000000000009,288.33433333333335
2018-08-07,12:30,219.520,287.08366666666677,94922.766666666663,88.536666666666676,385.70999999999998,324.20833333333326,33.160666666666671,195.29999999999993,324.10966666666667,0.0000000000000000,0.0000000000000000,0.19000000000000009,288.28700000000009
2018-08-07,13:00,219.541,287.60933333333327,94946.233333333337,87.137333333333331,390.91300000000007,329.87700000000007,47.686666666666660,282.51766666666663,502.76433333333330,0.0000000000000000,0.0000000000000000,0.19000000000000009,288.24999999999994
2018-08-07,13:30,219.562,288.43033333333341,94953.566666666666,83.224666666666678,396.25666666666649,335.17133333333328,60.564666666666660,367.06799999999998,675.89166666666665,0.0000000000000000,0.0000000000000000,0.19000000000000009,288.23599999999993
2018-08-07,14:00,219.583,289.05766666666665,94966.833333333328,82.420000000000002,401.40366666666665,340.09366666666676,74.809666666666629,455.99600000000004,851.13433333333330,0.0000000000000000,0.0000000000000000,0.19000000000000009,288.23966666666661
2018-08-07,14:30,219.604,289.90733333333338,94947.100000000006,75.098666666666659,408.01033333333311,346.17766666666665,86.799999999999983,538.37166666666656,1020.0680000000000,0.0000000000000000,0.0000000000000000,0.19000000000000009,288.27399999999994
2018-08-07,15:00,219.624,290.82833333333343,94950.766666666663,67.413666666666657,414.34933333333333,351.92933333333337,96.950333333333347,611.95933333333346,1175.0416666666667,0.0000000000000000,0.0000000000000000,0.19000000000000009,288.32833333333343
2018-08-07,15:30,219.645,291.45366666666666,94957.666666666672,63.257666666666665,418.77633333333330,357.14233333333323,97.853999999999985,630.94266666666670,1228.5606666666665,0.0000000000000000,0.0000000000000000,0.19000000000000009,288.41400000000004
2018-08-07,16:00,219.666,291.86000000000007,94964.433333333334,62.325666666666670,423.02266666666668,366.33833333333325,108.41633333333331,688.65733333333333,1352.9686666666666,0.0000000000000000,0.0000000000000000,0.19000000000000009,288.50033333333340
2018-08-07,16:30,219.687,292.11000000000001,94964.399999999994,60.881666666666668,423.97633333333329,364.82066666666668,116.71833333333333,743.76900000000001,1466.8349999999998,0.0000000000000000,0.0000000000000000,0.19000000000000009,288.60499999999996
2018-08-07,17:00,219.708,292.84533333333331,94942.100000000006,58.064666666666675,431.32300000000004,370.23433333333338,132.41999999999999,842.22700000000009,1657.0840000000001,0.0000000000000000,0.0000000000000000,0.19000000000000009,288.71799999999996
2018-08-07,17:30,219.729,293.32833333333326,94931.333333333328,56.759333333333331,433.66733333333337,386.56133333333332,123.69533333333332,783.58433333333335,1569.9163333333331,0.0000000000000000,0.0000000000000000,0.19000000000000009,288.84566666666677
2018-08-07,18:00,219.749,293.90566666666672,94906.433333333334,53.670999999999978,437.99733333333319,382.21766666666673,137.89866666666666,884.19333333333316,1754.2763333333335,0.0000000000000000,0.0000000000000000,0.19000000000000009,288.98533333333330
2018-08-07,18:30,219.770,294.04766666666660,94874.966666666660,53.954333333333338,438.50466666666671,378.47233333333327,141.70133333333334,893.87733333333358,1770.9173333333331,0.0000000000000000,0.0000000000000000,0.19000000000000009,289.12766666666681
2018-08-07,19:00,219.791,294.11400000000015,94852.633333333331,53.269999999999989,433.89966666666663,377.61366666666675,100.62400000000001,646.41799999999989,1326.1273333333336,0.0000000000000000,0.0000000000000000,0.19000000000000009,289.26133333333348
2018-08-07,19:30,219.812,294.52266666666668,94830.100000000006,52.500666666666660,435.27666666666676,384.44200000000012,97.145666666666656,601.55833333333351,1237.7006666666666,0.0000000000000000,0.0000000000000000,0.18966666666666673,289.38600000000002
2018-08-07,20:00,219.833,294.97300000000013,94807.933333333334,51.664666666666662,440.43933333333337,387.09599999999989,115.93300000000004,698.43399999999997,1404.4103333333335,0.0000000000000000,0.0000000000000000,0.17999999999999999,289.50533333333340
2018-08-07,20:30,219.854,295.27933333333334,94777.333333333328,50.496666666666663,440.95566666666673,388.66966666666673,115.89500000000001,687.56233333333330,1385.7079999999996,0.42000000000000004,13.822333333333335,0.17999999999999999,289.63366666666673
2018-08-07,21:00,219.874,295.35366666666670,94744.133333333331,49.649666666666668,440.14333333333343,382.27833333333325,110.00766666666665,637.88600000000008,1283.2536666666667,0.0000000000000000,0.0000000000000000,0.17999999999999999,289.77333333333337
2018-08-07,21:30,219.895,295.68766666666670,94720.933333333334,49.013333333333343,441.58666666666653,385.07433333333330,101.55899999999998,579.47333333333336,1153.8446666666666,0.0000000000000000,0.0000000000000000,0.17999999999999999,289.89700000000011
2018-08-07,22:00,219.916,295.74766666666676,94708.566666666666,48.798333333333332,440.29599999999999,382.67200000000008,96.984666666666669,531.08033333333333,1044.9143333333332,0.0000000000000000,0.0000000000000000,0.17999999999999999,289.99799999999999
2018-08-07,22:30,219.937,295.68800000000010,94693.199999999997,50.250666666666667,436.37466666666671,371.49733333333336,68.695333333333338,366.04133333333334,748.70166666666660,0.0000000000000000,0.0000000000000000,0.17999999999999999,290.08533333333338
2018-08-07,23:00,219.958,295.79766666666671,94677.666666666672,50.070333333333338,436.32733333333329,371.29666666666679,69.756666666666675,353.77700000000004,710.92466666666667,0.0000000000000000,0.0000000000000000,0.17999999999999999,290.14633333333330
2018-08-07,23:30,219.979,295.74866666666674,94661.066666666666,50.933666666666667,433.08666666666670,366.30466666666672,44.877333333333326,221.03766666666664,453.59133333333324,0.0000000000000000,0.0000000000000000,0.17999999999999999,290.19733333333329
2018-08-08,00:00,220.000,295.51266666666669,94666.866666666669,52.266666666666673,430.32033333333334,367.50533333333345,34.660666666666671,154.16766666666669,306.39033333333339,0.0000000000000000,0.0000000000000000,0.17999999999999999,290.22533333333337
